Regional Weather Roundup
Issued by NWS

Home | Current Version | Previous Version | Graphics & Text | Print | Product List | Glossary On
Versions: 1 2 3 4 5 6 7 8 9 10 11 12 13 14 15 16 17 18 19 20 21 22 23 24 25 26 27 28 29 30 31 32 33 34 35 36 37 38 39 40 41 42 43 44 45 46 47 48 49 50
000
ASUS43 KOAX 020302
RWRNE

WEATHER ROUNDUP FOR NEBRASKA
NATIONAL WEATHER SERVICE OMAHA NE
1000 PM CDT WED JUL 01 2015

NOTES: SATELLITE DATA IS BEING USED TO AUGMENT CLOUD COVER ABOVE
       12000 FEET.
       "FAIR" INDICATES FEW OR NO CLOUDS BELOW 12,000 FEET WITH NO
       SIGNIFICANT WEATHER AND/OR OBSTRUCTIONS TO VISIBILITY.

  * THESE STATIONS DO NOT REPORT WEATHER SUCH AS RAIN...SNOW OR FOG.

NEZ001>004-019>022-054>056-020400-
NEBRASKA PANHANDLE

CITY           SKY/WX    TMP DP  RH WIND       PRES   REMARKS
SCOTTSBLUFF    LGT RAIN  70 N/A N/A CALM      30.05R
ALLIANCE       CLOUDY    75  60  59 E5        30.03R
CHADRON        CLEAR     73  62  68 E7        29.98S
KIMBALL          N/A    N/A N/A N/A MISG        N/A
SIDNEY         CLOUDY    75  56  51 SW9       30.07R
$$

NEZ057>060-069>072-079>082-020400-
SOUTHWEST NEBRASKA

CITY           SKY/WX    TMP DP  RH WIND       PRES   REMARKS
NORTH PLATTE   MOCLDY    73  60  63 NE8       29.95R
IMPERIAL       CLOUDY    77  59  53 E7        29.98R
LEXINGTON      MOCLDY    79  68  70 SE6       29.92S
MCCOOK         CLOUDY    82  66  58 E6        29.93R
$$

NEZ005>010-023>029-035>040-094-020400-
NORTH CENTRAL NEBRASKA

CITY           SKY/WX    TMP DP  RH WIND       PRES   REMARKS
VALENTINE      CLEAR     70  65  84 W5        29.96S
AINSWORTH      CLEAR     71  64  78 CALM      29.96S
BROKEN BOW     PTCLDY    75  66  73 E9        29.94R
O`NEILL        CLOUDY    73  69  87 E13       29.94R
$$

NEZ041-046>049-061>064-073>077-083>087-020400-
SOUTH CENTRAL NEBRASKA

CITY           SKY/WX    TMP DP  RH WIND       PRES   REMARKS
GRAND ISLAND   CLEAR     75  68  78 NE6       29.90R
AURORA         CLEAR     75  72  89 E9        29.90R
HASTINGS       CLEAR     77  68  73 E5        29.90R
KEARNEY *      PTCLDY    75  68  78 E5        29.91S
$$

NEZ011>018-030>034-042>045-020400-
NORTHEAST NEBRASKA

CITY           SKY/WX    TMP DP  RH WIND       PRES   REMARKS
NORFOLK        CLEAR     71  67  87 E9        29.93R
ALBION         MOCLDY    72  65  77 E7        29.93R
BLAIR          PTCLDY    70  64  81 NE9       29.92R
COLUMBUS *     MOCLDY   N/A N/A N/A E8        29.91R
FREMONT        PTCLDY    74  66  77 E10       29.92R
TEKAMAH        CLEAR     72  66  81 E7        29.92R
$$

NEZ050>053-065>068-078-088>093-020400-
SOUTHEAST NEBRASKA

CITY           SKY/WX    TMP DP  RH WIND       PRES   REMARKS
LINCOLN        CLOUDY    78  69  73 E10       29.89R
OMAHA EPPLEY   PTCLDY    73  66  78 NE8       29.90R
BEATRICE       CLEAR     76  71  84 E6        29.86S
FALLS CITY     PTCLDY    77  71  82 NE10      29.85R
NEBRASKA CITY  CLOUDY    75  66  74 NE10      29.89R
PLATTSMOUTH    PTCLDY    72  66  82 NE8       29.90R
$$

NEZ044-045-051>053-067-020400-
OMAHA AREA

CITY           SKY/WX    TMP DP  RH WIND       PRES   REMARKS
OMAHA EPPLEY   PTCLDY    73  66  78 NE8       29.90R
BLAIR          PTCLDY    70  64  81 NE9       29.92R
FREMONT        PTCLDY    74  66  77 E10       29.92R
MILLARD        PTCLDY    75  68  79 E7        29.90R
OFFUTT AFB     PTCLDY    72  67  84 NE9       29.89R
PLATTSMOUTH    PTCLDY    72  66  82 NE8       29.90R
WAHOO          CLOUDY    74  68  80 NE8       29.91R
$$



USA.gov is the U.S. government's official web portal to all federal, state and local government web resources and services.